Dewpoint
56 60 59 60 61 62 63 63 64 64 63 62 59 57 55 55 55 55 56 59 60 62 62 61 60 60 59 58 57 56 55 54 54 54 51 50 50 50 51 53 52 52 53
51 57 59 60 59 60 61 62 63 63 62 60 57 56 56 55 54 53 57 60 61 61 61 62 60 59 58 57 57 56 54 53 51 51 52 50 52 53 50 49 51 52 51
48 52 58 58 58 60 60 58 58 60 60 59 59 57 56 58 56 55 57 60 60 61 61 62 60 59 57 56 55 54 53 52 52 52 50 52 51 52 52 52 51 49 48
49 50 53 56 56 58 59 58 57 58 58 57 57 56 56 58 57 56 56 61 61 60 61 61 61 60 58 57 55 54 53 51 52 51 51 53 52 53 51 50 48 49 48
47 49 53 54 55 56 56 57 56 56 55 55 56 56 56 56 57 59 60 60 61 61 61 60 61 60 59 57 57 55 53 53 52 51 51 53 52 49 49 49 48 47 47
46 47 49 53 55 55 55 55 55 55 55 54 54 54 54 54 55 57 59 60 61 61 61 62 61 60 59 59 59 56 55 52 52 52 52 50 50 48 48 49 47 47 46
46 47 48 50 54 54 54 54 53 54 55 54 52 52 52 52 54 55 56 58 58 60 61 61 60 60 60 61 60 57 54 53 52 52 50 50 48 48 50 47 46 46 44
47 47 48 49 52 53 54 53 53 53 54 54 52 51 49 51 51 52 52 54 57 57 58 59 59 59 59 59 59 58 55 54 52 50 50 48 47 47 49 46 46 44 43
47 47 47 48 52 52 53 54 54 54 52 53 52 50 47 46 49 49 50 51 52 55 57 57 57 57 57 57 57 57 56 53 51 50 48 47 47 47 47 46 45 44 43
47 46 46 47 50 52 53 54 54 54 53 51 53 52 49 47 45 44 47 48 50 51 53 55 55 55 55 55 56 55 55 54 52 51 48 47 47 47 46 45 44 43 43
48 47 47 46 47 50 51 53 54 53 53 52 50 50 49 48 46 46 45 46 47 49 49 51 52 52 52 53 54 54 54 53 51 51 49 47 46 46 45 44 44 43 43
46 45 46 47 46 47 49 51 51 52 52 53 52 50 49 48 46 44 43 43 45 45 47 47 48 49 49 51 52 52 52 51 51 50 48 48 47 45 44 44 44 43 42
43 43 45 45 46 47 47 49 51 51 50 51 53 52 50 49 47 46 45 43 43 42 44 44 45 46 45 46 48 50 51 50 49 48 47 46 43 43 44 44 43 42 40
43 44 45 46 46 47 47 48 49 51 51 50 51 52 51 50 48 47 46 44 41 41 41 43 43 44 45 45 46 47 48 48 48 47 45 42 42 43 42 41 40 38 39
43 44 46 47 48 48 47 47 48 49 50 49 49 51 52 51 49 48 46 45 45 41 41 40 42 42 43 44 46 45 46 47 46 44 40 41 40 38 36 35 36 36 37
45 45 45 45 46 46 46 47 47 48 49 49 49 50 51 51 50 48 47 46 46 44 43 40 39 40 42 42 44 42 42 44 43 40 38 36 35 34 33 33 34 35 36
43 43 43 43 42 44 45 46 46 47 48 48 48 50 50 51 49 48 48 47 47 47 45 37 37 37 38 40 40 40 41 38 38 36 34 33 33 33 33 33 34 35 35
41 41 41 42 43 45 46 46 46 47 47 47 48 50 50 51 50 49 48 47 47 46 42 39 34 35 35 38 37 36 34 31 29 32 33 32 32 32 32 32 34 35 33
40 40 41 42 43 45 48 47 47 47 47 47 47 49 50 50 49 48 47 46 45 42 40 37 33 32 31 32 31 30 27 25 24 25 27 28 29 30 30 32 34 34 33
39 40 41 42 45 46 47 48 47 47 48 48 48 50 50 49 48 47 47 45 42 40 38 36 32 31 31 30 28 26 25 25 23 23 25 26 28 28 29 30 30 29 29
39 40 41 42 44 45 46 48 48 48 47 46 46 47 48 49 48 47 45 42 40 38 36 34 32 31 30 29 30 29 26 23 22 23 22 22 23 22 20 22 25 27 27
38 39 40 41 42 43 45 46 45 43 43 43 42 42 44 46 46 46 44 42 40 38 36 34 32 32 31 31 29 27 23 21 20 24 21 19 20 19 19 20 23 25 23
38 38 38 39 40 41 43 43 42 41 40 40 40 40 40 41 42 42 42 41 41 40 38 36 34 33 31 29 26 23 21 18 15 23 20 15 20 18 18 19 23 24 25
37 37 37 37 38 39 40 40 38 37 36 36 36 37 37 36 36 35 33 32 32 33 34 31 31 27 26 25 25 23 20 20 21 21 21 12 20 17 18 19 23 24 25
36 35 35 37 37 37 38 37 36 34 33 32 33 33 34 35 36 34 31 30 28 28 29 28 28 28 28 27 24 21 18 14 15 17 20 17 19 19 20 20 19 23 26
34 34 33 34 36 36 37 36 34 32 31 31 31 32 32 31 30 28 26 27 27 28 28 28 28 28 28 26 24 18 19 11 16 14 21 17 20 19 10 19 19 20 20
Wind_Speed
7 6 6 5 4 4 5 6 6 6 7 7 7 7 5 6 8 9 9 11 13 15 12 17 16 16 14 13 12 13 12 11 10 10 9 8 7 5 6 6 6 8 8
7 6 5 5 5 3 3 2 4 5 6 5 6 7 1 4 7 10 9 10 15 16 13 18 18 16 14 14 13 13 13 14 14 12 10 9 8 7 5 4 5 6 7
6 6 5 5 5 4 3 1 1 2 1 5 9 10 7 8 10 8 9 8 11 16 15 19 19 17 16 17 15 15 14 13 13 14 12 10 8 7 7 8 6 5 5
6 7 6 7 5 3 5 4 3 4 4 5 5 7 9 9 11 12 12 14 14 15 18 22 23 23 20 19 19 18 15 15 14 13 12 13 11 10 7 6 6 5 5
9 8 7 7 5 5 6 5 5 6 6 6 7 5 2 5 8 7 9 10 13 14 12 20 24 22 22 20 19 18 17 15 14 13 14 13 12 10 10 8 6 5 4
8 8 8 8 6 7 8 6 7 7 5 8 6 4 2 2 4 6 8 8 10 13 14 16 15 16 17 17 20 19 20 16 16 15 14 12 11 12 10 9 7 5 3
8 7 7 7 6 8 11 7 4 8 6 6 6 3 2 3 3 2 2 5 8 9 12 15 13 11 13 15 17 20 20 18 15 15 13 13 12 12 12 9 8 6 4
8 7 7 8 8 8 10 10 9 5 6 12 5 2 4 6 6 3 1 0 5 7 10 13 14 14 12 12 13 15 18 18 15 13 13 12 13 12 11 10 8 6 5
10 8 8 8 8 8 11 11 13 13 12 10 14 6 4 8 3 1 3 1 1 4 9 12 15 15 15 15 15 18 17 17 17 13 12 12 13 12 11 10 9 7 6
14 11 9 9 9 8 10 11 12 14 11 13 7 9 2 1 4 3 2 3 1 3 2 3 6 13 15 15 17 14 15 15 15 15 14 13 12 12 11 11 10 8 6
10 13 9 10 10 11 12 11 10 13 14 11 13 5 5 3 2 2 4 4 3 1 1 2 7 5 7 13 14 18 19 17 15 14 14 14 13 13 13 12 9 8 8
14 15 13 11 12 13 14 14 13 14 16 16 13 14 13 8 8 5 4 2 6 3 2 4 6 8 8 9 17 23 22 19 18 16 12 10 12 13 12 10 9 9 9
16 16 14 15 13 14 14 13 14 14 15 15 17 17 16 17 11 11 8 4 6 5 5 4 4 4 6 3 9 15 22 20 17 16 12 12 11 9 6 6 7 9 10
15 16 16 15 16 14 14 13 13 13 12 15 17 17 16 16 15 14 14 11 4 6 1 3 2 8 8 5 10 8 10 11 12 11 11 8 7 7 4 3 7 8 10
13 14 14 14 15 14 13 13 12 15 14 14 18 17 17 15 15 17 15 14 15 11 13 10 7 7 8 10 6 9 8 10 9 7 8 9 10 7 3 6 7 8 9
12 14 15 14 15 14 14 14 14 14 16 15 15 18 17 14 16 15 17 15 13 13 10 5 5 2 8 9 8 10 7 9 9 8 7 7 6 6 7 7 8 9 10
14 14 15 15 16 16 16 15 17 17 18 18 17 18 18 15 14 16 15 13 13 12 12 3 3 2 3 10 11 8 8 7 8 10 9 8 8 8 7 8 10 10 10
14 15 15 16 16 18 17 16 17 16 19 18 17 17 18 14 18 16 16 16 15 14 9 13 4 4 3 7 12 13 8 6 7 6 8 9 10 8 8 9 11 11 10
14 14 14 16 17 16 16 16 17 16 16 16 16 17 17 17 17 15 14 13 13 12 9 9 7 4 2 5 7 6 7 5 3 3 6 8 9 8 7 9 10 11 11
14 15 14 14 12 13 14 16 15 15 15 15 15 16 14 16 15 17 16 14 14 14 11 13 7 6 4 4 6 9 7 2 4 1 1 3 3 4 7 9 10 10 10
13 13 14 13 12 11 10 11 12 12 9 10 7 7 8 10 16 17 14 15 17 15 14 14 11 5 6 9 12 7 7 5 3 3 2 3 5 4 6 8 9 8 9
14 13 13 14 14 12 12 7 9 9 10 11 12 11 9 10 6 11 12 17 19 21 15 12 8 12 10 8 8 11 8 5 5 2 3 4 1 5 8 8 9 9 10
12 13 14 15 15 14 12 12 16 13 14 14 12 13 13 9 14 14 18 18 14 10 9 13 15 12 13 15 16 12 6 4 3 3 2 2 0 5 6 6 9 11 12
12 12 14 15 15 15 16 15 18 15 17 15 14 13 13 13 12 16 19 18 17 11 6 4 7 10 6 14 13 8 9 8 6 4 2 1 1 4 3 6 8 10 11
11 12 13 15 15 14 16 14 13 15 18 17 14 14 13 14 15 16 20 21 18 16 16 18 18 17 18 17 15 15 11 10 3 3 1 1 1 4 3 4 3 4 3
9 10 13 14 15 13 16 15 13 12 17 15 15 15 17 14 14 13 17 19 20 12 16 16 15 17 15 14 9 5 11 8 4 1 3 2 1 3 5 2 4 4 5
Wind_Direction
351 332 324 330 336 333 312 290 254 242 228 213 201 205 213 244 260 261 246 254 238 236 224 192 186 182 187 187 181 171 170 165 156 152 161 160 153 152 143 119 113 74 71
349 330 310 305 304 304 316 329 320 240 193 178 163 145 116 323 270 247 260 267 243 230 226 203 183 182 179 180 172 168 168 164 165 159 162 169 145 142 154 153 105 108 92
342 327 297 276 283 300 276 170 337 307 224 188 186 189 185 213 243 254 226 241 241 232 227 195 189 175 175 177 174 172 172 170 168 169 162 157 166 143 128 110 108 126 127
345 327 299 274 269 264 269 254 222 240 214 232 214 206 210 224 231 229 230 213 221 215 214 190 181 183 184 184 180 177 172 183 169 170 171 157 146 145 145 143 157 139 144
334 329 306 282 254 243 252 236 225 227 235 231 226 201 201 245 258 274 260 240 222 207 198 200 186 185 190 186 182 182 170 173 178 175 167 157 157 168 169 161 155 161 152
323 321 305 294 257 239 244 235 226 206 210 217 201 196 259 276 256 257 256 246 233 191 175 174 192 183 166 179 196 184 176 176 179 174 171 166 173 181 166 160 165 159 165
313 318 313 294 262 239 239 220 232 217 207 179 168 218 247 286 277 256 259 239 238 221 180 173 175 169 182 201 198 193 178 177 179 175 178 172 183 188 165 176 175 164 178
292 291 292 291 269 246 248 224 212 211 199 180 201 173 233 223 212 198 298 95 239 218 207 176 172 174 181 177 183 189 179 172 179 182 181 182 190 186 181 182 181 185 197
291 273 273 275 269 255 248 230 221 208 200 206 200 203 203 228 180 112 223 239 21 266 221 189 177 174 170 177 176 177 182 177 166 185 194 194 192 188 186 188 198 203 220
306 288 284 280 269 259 254 243 225 228 212 202 206 206 207 191 195 221 233 218 128 225 280 203 171 175 166 163 153 154 162 164 170 188 196 194 192 191 198 204 205 222 228
312 300 292 280 261 248 247 247 233 231 230 218 204 175 179 187 115 156 230 208 210 194 196 245 193 171 162 156 154 160 159 163 183 197 202 194 198 206 210 212 214 229 245
308 300 305 286 266 256 242 235 241 241 240 228 215 200 204 201 194 176 224 212 217 209 233 208 193 181 188 177 157 167 164 173 186 195 198 209 217 219 222 217 225 241 252
303 299 300 292 275 259 249 242 236 239 241 240 224 215 217 219 196 180 200 183 206 200 194 205 195 160 155 157 149 168 168 183 181 195 199 213 216 223 219 225 251 265 270
289 291 290 283 277 264 251 244 238 235 241 245 235 219 208 212 201 198 201 181 201 230 228 270 184 186 164 185 132 140 140 159 181 192 200 211 194 147 140 222 260 270 276
277 280 284 280 278 272 257 253 243 242 231 240 245 233 218 209 199 206 195 186 201 216 226 222 193 187 146 147 175 155 177 163 174 187 205 121 123 125 158 231 247 252 259
295 298 296 291 285 274 259 249 244 237 235 235 237 234 233 218 202 198 198 200 196 203 230 186 193 117 156 157 166 153 195 167 179 155 130 130 139 169 208 231 241 249 244
302 297 293 289 283 278 270 257 244 239 232 233 232 230 227 212 205 194 186 184 193 178 208 190 105 113 126 152 137 143 169 162 157 172 169 167 194 208 213 237 240 234 240
302 294 293 289 278 272 258 254 242 239 235 229 227 226 221 200 206 194 189 187 190 195 171 182 156 134 166 163 150 152 160 151 152 162 184 193 208 219 233 253 246 233 245
303 309 310 298 284 275 259 246 237 235 235 235 237 227 220 200 202 191 184 184 179 171 173 153 153 142 122 148 122 120 136 143 159 204 221 227 227 228 243 249 245 242 261
323 327 316 308 307 299 281 248 232 234 232 235 231 209 200 196 191 179 175 174 162 158 152 149 128 139 123 122 125 154 166 151 183 195 257 260 262 226 237 246 250 254 262
336 325 326 330 328 323 320 263 229 241 205 164 133 147 173 191 189 181 168 163 157 150 148 143 136 134 137 163 178 164 168 173 204 206 227 241 235 245 261 274 271 251 247
340 347 357 1 7 4 17 90 114 104 114 119 109 96 102 116 157 153 156 158 164 157 154 144 145 164 174 164 143 163 154 167 215 182 186 256 227 272 271 258 246 246 256
352 6 13 16 18 20 33 72 82 81 85 76 86 90 85 80 99 108 114 113 112 115 148 137 166 174 174 175 160 166 155 140 161 161 167 263 196 265 246 250 259 256 266
8 15 24 26 26 29 39 58 77 78 76 71 71 80 87 79 85 102 97 85 79 69 83 122 169 155 146 144 143 151 149 124 102 100 121 272 320 267 281 276 279 272 270
14 26 28 35 31 32 37 49 68 80 80 75 73 73 82 95 104 104 102 99 86 79 83 92 97 105 118 123 127 124 138 138 135 182 138 200 304 302 299 296 283 257 281
18 35 38 37 41 37 48 53 56 74 84 81 72 77 82 90 100 106 107 110 105 99 102 91 84 82 90 102 95 120 148 152 126 144 202 208 342 359 317 302 300 278 269